| time (UTC) | temp F | wind direction | speed MPH | gust MPH | rain 1hr in | rain 24hr in | rain mn in | humidity % | barometer mb |
| 20260509171019 | 56 | 0 | 0.0 | 0.0 | 0.00 | 0.07 | 0.07 | 85 | 1007.8 |
| 20260509170515 | 56 | 0 | 0.0 | 0.0 | 0.00 | 0.07 | 0.07 | 85 | 1007.8 |
| 20260509170042 | 55 | 0 | 0.0 | 0.0 | 0.00 | 0.07 | 0.07 | 86 | 1007.9 |
| 20260509165516 | 55 | 0 | 0.0 | 0.0 | 0.00 | 0.07 | 0.07 | 87 | 1007.9 |
| 20260509165018 | 55 | 0 | 0.0 | 0.0 | 0.00 | 0.07 | 0.07 | 88 | 1008.1 |
| 20260509164536 | 55 | 0 | 0.0 | 0.0 | 0.00 | 0.07 | 0.07 | 87 | 1008.1 |
| 20260509164018 | 55 | 0 | 0.0 | 0.0 | 0.00 | 0.07 | 0.07 | 87 | 1008.2 |
| 20260509163517 | 55 | 0 | 0.0 | 0.0 | 0.00 | 0.07 | 0.07 | 87 | 1008.2 |
| 20260509163032 | 54 | 0 | 0.0 | 0.0 | 0.00 | 0.07 | 0.07 | 88 | 1008.3 |
| 20260509162516 | 54 | 0 | 0.0 | 0.0 | 0.00 | 0.07 | 0.07 | 88 | 1008.3 |
| 20260509162025 | 54 | 0 | 0.0 | 0.0 | 0.00 | 0.07 | 0.07 | 89 | 1008.3 |
| 20260509161535 | 54 | 0 | 0.0 | 0.0 | 0.00 | 0.07 | 0.07 | 89 | 1008.4 |
| 20260509161017 | 54 | 0 | 0.0 | 0.0 | 0.00 | 0.07 | 0.07 | 89 | 1008.5 |
| 20260509160514 | 54 | 0 | 0.0 | 0.0 | 0.00 | 0.07 | 0.07 | 89 | 1008.5 |
| 20260509160037 | 54 | 0 | 0.0 | 0.0 | 0.00 | 0.07 | 0.07 | 91 | 1008.5 |
| 20260509155514 | 54 | 0 | 0.0 | 0.0 | 0.00 | 0.07 | 0.07 | 92 | 1008.5 |
| 20260509155018 | 53 | 0 | 0.0 | 0.0 | 0.00 | 0.07 | 0.07 | 91 | 1008.6 |
| 20260509154532 | 53 | 0 | 0.0 | 0.0 | 0.00 | 0.07 | 0.07 | 92 | 1008.7 |
| 20260509154016 | 53 | 0 | 0.0 | 0.0 | 0.00 | 0.07 | 0.07 | 91 | 1008.7 |
| 20260509153519 | 53 | 0 | 0.0 | 0.0 | 0.00 | 0.07 | 0.07 | 93 | 1008.8 |
| 20260509153039 | 53 | 0 | 0.0 | 0.0 | 0.01 | 0.07 | 0.07 | 93 | 1008.9 |
| 20260509152514 | 52 | 0 | 0.0 | 0.0 | 0.01 | 0.07 | 0.07 | 94 | 1009.0 |
| 20260509152014 | 52 | 0 | 0.0 | 0.0 | 0.01 | 0.07 | 0.07 | 94 | 1009.0 |
| 20260509151530 | 52 | 0 | 0.0 | 0.0 | 0.01 | 0.07 | 0.07 | 93 | 1009.1 |
| 20260509151014 | 51 | 0 | 0.0 | 0.0 | 0.01 | 0.07 | 0.07 | 93 | 1009.1 |
| 20260509150517 | 51 | 0 | 0.0 | 0.0 | 0.01 | 0.07 | 0.07 | 93 | 1009.3 |
| 20260509150034 | 51 | 0 | 0.0 | 0.0 | 0.01 | 0.07 | 0.07 | 93 | 1009.3 |
| 20260509145517 | 51 | 0 | 0.0 | 0.0 | 0.02 | 0.14 | 0.07 | 94 | 1009.2 |
| 20260509145017 | 51 | 0 | 0.0 | 0.0 | 0.02 | 0.14 | 0.07 | 94 | 1009.3 |
| 20260509144534 | 51 | 0 | 0.0 | 0.0 | 0.02 | 0.14 | 0.07 | 94 | 1009.4 |
| 20260509144017 | 51 | 0 | 0.0 | 0.0 | 0.02 | 0.14 | 0.07 | 94 | 1009.4 |
| 20260509143517 | 51 | 0 | 0.0 | 0.0 | 0.03 | 0.14 | 0.07 | 94 | 1009.5 |
| 20260509143031 | 51 | 0 | 0.0 | 0.0 | 0.02 | 0.13 | 0.06 | 94 | 1009.6 |
| 20260509142517 | 51 | 0 | 0.0 | 0.0 | 0.02 | 0.13 | 0.06 | 94 | 1009.5 |
| 20260509142016 | 51 | 0 | 0.0 | 0.0 | 0.02 | 0.13 | 0.06 | 94 | 1009.5 |
| 20260509141532 | 50 | 0 | 0.0 | 0.0 | 0.03 | 0.13 | 0.06 | 95 | 1009.4 |
| 20260509141017 | 50 | 0 | 0.0 | 0.0 | 0.03 | 0.13 | 0.06 | 95 | 1009.4 |
| 20260509140516 | 50 | 0 | 0.0 | 0.0 | 0.03 | 0.13 | 0.06 | 95 | 1009.4 |
| 20260509140035 | 49 | 0 | 0.0 | 0.0 | 0.03 | 0.13 | 0.06 | 95 | 1009.4 |
| 20260509135518 | 49 | 0 | 0.0 | 0.0 | 0.02 | 0.12 | 0.05 | 95 | 1009.4 |
| 20260509135014 | 49 | 0 | 0.0 | 0.0 | 0.03 | 0.12 | 0.05 | 94 | 1009.4 |
| 20260509134529 | 49 | 0 | 0.0 | 0.0 | 0.03 | 0.12 | 0.05 | 94 | 1009.5 |
| 20260509134018 | 49 | 0 | 0.0 | 0.0 | 0.03 | 0.12 | 0.05 | 94 | 1009.5 |
| 20260509133517 | 49 | 0 | 0.0 | 0.0 | 0.02 | 0.11 | 0.04 | 94 | 1009.6 |
| 20260509133032 | 48 | 0 | 0.0 | 0.0 | 0.02 | 0.11 | 0.04 | 94 | 1009.8 |
| 20260509132517 | 48 | 0 | 0.0 | 0.0 | 0.02 | 0.11 | 0.04 | 94 | 1009.7 |
| 20260509132019 | 48 | 0 | 0.0 | 0.0 | 0.03 | 0.11 | 0.04 | 93 | 1009.7 |
| 20260509131535 | 48 | 0 | 0.0 | 0.0 | 0.02 | 0.10 | 0.03 | 93 | 1009.7 |
| 20260509131018 | 48 | 0 | 0.0 | 0.0 | 0.02 | 0.10 | 0.03 | 93 | 1009.7 |
| 20260509130514 | 48 | 0 | 0.0 | 0.0 | 0.02 | 0.10 | 0.03 | 93 | 1009.8 |
| 20260509130032 | 48 | 0 | 0.0 | 0.0 | 0.02 | 0.10 | 0.03 | 93 | 1009.8 |
| 20260509125514 | 48 | 0 | 0.0 | 0.0 | 0.03 | 0.10 | 0.03 | 93 | 1009.8 |
| 20260509125018 | 47 | 0 | 0.0 | 0.0 | 0.02 | 0.09 | 0.02 | 93 | 1009.8 |
| 20260509124530 | 47 | 0 | 0.0 | 0.0 | 0.02 | 0.09 | 0.02 | 93 | 1009.8 |
| 20260509124017 | 47 | 0 | 0.0 | 0.0 | 0.02 | 0.09 | 0.02 | 93 | 1009.7 |
| 20260509123514 | 47 | 0 | 0.0 | 0.0 | 0.02 | 0.09 | 0.02 | 92 | 1009.8 |
| 20260509123034 | 47 | 0 | 0.0 | 0.0 | 0.02 | 0.09 | 0.02 | 92 | 1009.8 |
| 20260509122516 | 47 | 0 | 0.0 | 0.0 | 0.02 | 0.09 | 0.02 | 92 | 1009.9 |
| 20260509122017 | 47 | 0 | 0.0 | 0.0 | 0.01 | 0.08 | 0.01 | 91 | 1010.0 |
| 20260509121534 | 47 | 0 | 0.0 | 0.0 | 0.01 | 0.08 | 0.01 | 91 | 1010.0 |
| 20260509121016 | 47 | 0 | 0.0 | 0.0 | 0.01 | 0.08 | 0.01 | 90 | 1010.1 |
| 20260509120514 | 46 | 0 | 0.0 | 0.0 | 0.01 | 0.08 | 0.01 | 90 | 1010.1 |
| 20260509120037 | 46 | 0 | 0.0 | 0.0 | 0.01 | 0.08 | 0.01 | 90 | 1010.2 |
| 20260509115514 | 46 | 0 | 0.0 | 0.0 | 0.00 | 0.07 | 0.00 | 89 | 1010.1 |
| 20260509115015 | 46 | 0 | 0.0 | 0.0 | 0.00 | 0.07 | 0.00 | 88 | 1010.1 |
| 20260509114533 | 46 | 0 | 0.0 | 0.0 | 0.00 | 0.07 | 0.00 | 88 | 1010.0 |
| 20260509114017 | 46 | 0 | 0.0 | 0.0 | 0.00 | 0.07 | 0.00 | 87 | 1010.1 |
| 20260509113514 | 45 | 0 | 0.0 | 0.0 | 0.00 | 0.07 | 0.00 | 87 | 1010.0 |
| 20260509113035 | 45 | 0 | 0.0 | 0.0 | 0.00 | 0.07 | 0.00 | 87 | 1010.0 |
| 20260509112514 | 45 | 0 | 0.0 | 0.0 | 0.00 | 0.07 | 0.00 | 87 | 1010.1 |
| 20260509112019 | 45 | 0 | 0.0 | 0.0 | 0.00 | 0.07 | 0.00 | 86 | 1010.1 |
| 20260509111535 | 45 | 0 | 0.0 | 0.0 | 0.00 | 0.07 | 0.00 | 85 | 1010.1 |
| 20260509111018 | 44 | 0 | 0.0 | 0.0 | 0.00 | 0.07 | 0.00 | 85 | 1010.2 |
| 20260509110518 | 44 | 0 | 0.0 | 0.0 | 0.00 | 0.07 | 0.00 | 86 | 1010.1 |
| 20260509110035 | 44 | 0 | 0.0 | 0.0 | 0.00 | 0.07 | 0.00 | 85 | 1010.0 |
| 20260509105518 | 44 | 0 | 0.0 | 0.0 | 0.00 | 0.07 | 0.00 | 85 | 1009.9 |
| 20260509105020 | 44 | 0 | 0.0 | 0.0 | 0.00 | 0.07 | 0.00 | 84 | 1010.0 |
| 20260509104540 | 43 | 0 | 0.0 | 0.0 | 0.00 | 0.07 | 0.00 | 85 | 1009.9 |
| 20260509104019 | 43 | 0 | 0.0 | 0.0 | 0.00 | 0.07 | 0.00 | 87 | 1010.0 |
| 20260509103518 | 42 | 0 | 0.0 | 0.0 | 0.00 | 0.07 | 0.00 | 86 | 1010.1 |
| 20260509103040 | 42 | 0 | 0.0 | 0.0 | 0.00 | 0.07 | 0.00 | 87 | 1010.1 |
| 20260509102518 | 42 | 0 | 0.0 | 0.0 | 0.00 | 0.07 | 0.00 | 86 | 1010.0 |
| 20260509102019 | 42 | 0 | 0.0 | 0.0 | 0.00 | 0.07 | 0.00 | 86 | 1009.9 |
| 20260509101550 | 41 | 0 | 0.0 | 0.0 | 0.00 | 0.07 | 0.00 | 86 | 1009.8 |
| 20260509101021 | 41 | 0 | 0.0 | 0.0 | 0.00 | 0.07 | 0.00 | 85 | 1009.7 |
| 20260509100520 | 41 | 0 | 0.0 | 0.0 | 0.00 | 0.07 | 0.00 | 85 | 1009.8 |
| 20260509100041 | 41 | 0 | 0.0 | 0.0 | 0.00 | 0.07 | 0.00 | 85 | 1010.0 |
| 20260509095518 | 41 | 0 | 0.0 | 0.0 | 0.00 | 0.07 | 0.00 | 85 | 1009.9 |
| 20260509095018 | 41 | 0 | 0.0 | 0.0 | 0.00 | 0.07 | 0.00 | 85 | 1009.8 |
| 20260509094534 | 41 | 0 | 0.0 | 0.0 | 0.00 | 0.07 | 0.00 | 85 | 1009.8 |
| 20260509094018 | 41 | 0 | 0.0 | 0.0 | 0.00 | 0.07 | 0.00 | 85 | 1009.7 |
| 20260509093519 | 41 | 0 | 0.0 | 0.0 | 0.00 | 0.07 | 0.00 | 85 | 1009.6 |
| 20260509093035 | 41 | 0 | 0.0 | 0.0 | 0.00 | 0.07 | 0.00 | 85 | 1009.7 |
| 20260509092519 | 41 | 0 | 0.0 | 0.0 | 0.00 | 0.07 | 0.00 | 85 | 1010.0 |
| 20260509092018 | 41 | 0 | 0.0 | 0.0 | 0.00 | 0.07 | 0.00 | 84 | 1009.9 |
| 20260509091534 | 41 | 0 | 0.0 | 0.0 | 0.00 | 0.07 | 0.00 | 84 | 1009.8 |
| 20260509091018 | 41 | 0 | 0.0 | 0.0 | 0.00 | 0.07 | 0.00 | 84 | 1010.0 |
| 20260509090519 | 41 | 0 | 0.0 | 0.0 | 0.00 | 0.07 | 0.00 | 84 | 1010.3 |
| 20260509090043 | 41 | 0 | 0.0 | 0.0 | 0.00 | 0.07 | 0.00 | 84 | 1010.4 |
| 20260509085518 | 41 | 0 | 0.0 | 0.0 | 0.00 | 0.09 | 0.00 | 83 | 1010.4 |
| 20260509085018 | 41 | 0 | 0.0 | 0.0 | 0.00 | 0.09 | 0.00 | 83 | 1010.4 |
| 20260509084543 | 41 | 0 | 0.0 | 0.0 | 0.00 | 0.09 | 0.00 | 83 | 1010.4 |
| 20260509084021 | 41 | 0 | 0.0 | 0.0 | 0.00 | 0.09 | 0.00 | 84 | 1010.3 |
| 20260509083519 | 41 | 0 | 0.0 | 0.0 | 0.00 | 0.09 | 0.00 | 84 | 1010.4 |
| 20260509083039 | 41 | 0 | 0.0 | 0.0 | 0.00 | 0.09 | 0.00 | 84 | 1010.6 |
| 20260509082519 | 41 | 0 | 0.0 | 0.0 | 0.00 | 0.09 | 0.00 | 85 | 1010.5 |
| 20260509082022 | 41 | 0 | 0.0 | 0.0 | 0.00 | 0.09 | 0.00 | 85 | 1010.4 |
| 20260509081646 | 41 | 0 | 0.0 | 0.0 | 0.00 | 0.09 | 0.00 | 85 | 1010.6 |
| 20260509081016 | 41 | 0 | 0.0 | 0.0 | 0.00 | 0.09 | 0.00 | 84 | 1010.6 |
| 20260509080514 | 41 | 0 | 0.0 | 0.0 | 0.00 | 0.09 | 0.00 | 85 | 1010.6 |
| 20260509080035 | 41 | 0 | 0.0 | 0.0 | 0.00 | 0.09 | 0.00 | 85 | 1010.8 |
| 20260509075517 | 41 | 0 | 0.0 | 0.0 | 0.00 | 0.15 | 0.00 | 85 | 1010.7 |
| 20260509075017 | 40 | 0 | 0.0 | 0.0 | 0.00 | 0.15 | 0.00 | 85 | 1010.6 |
| 20260509074532 | 40 | 0 | 0.0 | 0.0 | 0.00 | 0.15 | 0.00 | 85 | 1010.8 |
| 20260509074017 | 40 | 0 | 0.0 | 0.0 | 0.00 | 0.15 | 0.00 | 86 | 1010.8 |
| 20260509073521 | 40 | 0 | 0.0 | 0.0 | 0.00 | 0.15 | 0.00 | 86 | 1010.8 |
| 20260509073104 | 40 | 0 | 0.0 | 0.0 | 0.00 | 0.15 | 0.00 | 86 | 1010.5 |
| 20260509072521 | 39 | 0 | 0.0 | 0.0 | 0.00 | 0.15 | 0.00 | 86 | 1010.7 |
| 20260509072021 | 39 | 0 | 0.0 | 0.0 | 0.00 | 0.15 | 0.00 | 86 | 1010.6 |
| 20260509071536 | 39 | 0 | 0.0 | 0.0 | 0.00 | 0.15 | 0.00 | 86 | 1010.6 |
| 20260509071017 | 39 | 0 | 0.0 | 0.0 | 0.00 | 0.15 | 0.00 | 86 | 1010.6 |
| 20260509070514 | 39 | 0 | 0.0 | 0.0 | 0.00 | 0.15 | 0.00 | 85 | 1010.7 |
| 20260509070032 | 39 | 0 | 0.0 | 0.0 | 0.00 | 0.15 | 0.00 | 85 | 1010.8 |
| 20260509065516 | 39 | 0 | 0.0 | 0.0 | 0.00 | 0.15 | 0.00 | 85 | 1010.8 |
| 20260509065018 | 39 | 0 | 0.0 | 0.0 | 0.00 | 0.15 | 0.00 | 86 | 1010.8 |
| 20260509064534 | 40 | 0 | 0.0 | 0.0 | 0.00 | 0.15 | 0.00 | 85 | 1010.8 |
| 20260509064018 | 40 | 0 | 0.0 | 0.0 | 0.00 | 0.15 | 0.00 | 85 | 1010.7 |
| 20260509063517 | 40 | 0 | 0.0 | 0.0 | 0.00 | 0.15 | 0.00 | 85 | 1010.9 |
| 20260509063032 | 40 | 0 | 0.0 | 0.0 | 0.00 | 0.15 | 0.00 | 86 | 1011.0 |
| 20260509062514 | 40 | 0 | 0.0 | 0.0 | 0.00 | 0.15 | 0.00 | 86 | 1011.1 |
| 20260509062016 | 40 | 0 | 0.0 | 0.0 | 0.00 | 0.15 | 0.00 | 86 | 1011.3 |
| 20260509061535 | 40 | 0 | 0.0 | 0.0 | 0.00 | 0.15 | 0.00 | 86 | 1011.3 |
| 20260509061018 | 40 | 0 | 0.0 | 0.0 | 0.00 | 0.15 | 0.00 | 85 | 1011.3 |
| 20260509060514 | 40 | 0 | 0.0 | 0.0 | 0.00 | 0.15 | 0.00 | 85 | 1011.4 |
| 20260509060046 | 40 | 0 | 0.0 | 0.0 | 0.00 | 0.15 | 0.00 | 84 | 1011.3 |
| 20260509055517 | 40 | 0 | 0.0 | 0.0 | 0.00 | 0.15 | 0.00 | 84 | 1011.4 |
| 20260509055017 | 40 | 0 | 0.0 | 0.0 | 0.00 | 0.15 | 0.00 | 84 | 1011.5 |
| 20260509054533 | 40 | 0 | 0.0 | 0.0 | 0.00 | 0.15 | 0.00 | 84 | 1011.5 |
| 20260509054018 | 41 | 0 | 0.0 | 0.0 | 0.00 | 0.15 | 0.00 | 84 | 1011.7 |
| 20260509053517 | 41 | 0 | 0.0 | 0.0 | 0.00 | 0.15 | 0.00 | 84 | 1011.7 |
| 20260509053035 | 41 | 0 | 0.0 | 0.0 | 0.00 | 0.15 | 0.00 | 84 | 1011.9 |
| 20260509052517 | 41 | 0 | 0.0 | 0.0 | 0.00 | 0.15 | 0.00 | 84 | 1011.8 |
| 20260509052016 | 41 | 0 | 0.0 | 0.0 | 0.00 | 0.15 | 0.00 | 85 | 1011.9 |
| 20260509051533 | 41 | 0 | 0.0 | 0.0 | 0.00 | 0.15 | 0.00 | 85 | 1011.9 |
| 20260509051014 | 41 | 0 | 0.0 | 0.0 | 0.00 | 0.15 | 0.00 | 84 | 1011.9 |
| 20260509050517 | 41 | 0 | 0.0 | 0.0 | 0.00 | 0.15 | 0.00 | 84 | 1011.9 |
| 20260509050034 | 41 | 0 | 0.0 | 0.0 | 0.00 | 0.15 | 0.00 | 84 | 1012.0 |
| 20260509045515 | 41 | 0 | 0.0 | 0.0 | 0.00 | 0.15 | 0.00 | 84 | 1012.0 |
| 20260509045016 | 41 | 0 | 0.0 | 0.0 | 0.00 | 0.15 | 0.00 | 85 | 1012.1 |
| 20260509044535 | 41 | 0 | 0.0 | 0.0 | 0.00 | 0.15 | 0.00 | 85 | 1012.2 |
| 20260509044015 | 41 | 0 | 0.0 | 0.0 | 0.00 | 0.15 | 0.00 | 86 | 1012.2 |
| 20260509043516 | 41 | 0 | 0.0 | 0.0 | 0.00 | 0.15 | 0.00 | 86 | 1012.2 |
| 20260509043035 | 41 | 0 | 0.0 | 0.0 | 0.00 | 0.15 | 0.00 | 86 | 1012.3 |
| 20260509042517 | 41 | 0 | 0.0 | 0.0 | 0.00 | 0.15 | 0.00 | 87 | 1012.2 |
| 20260509042018 | 41 | 0 | 0.0 | 0.0 | 0.00 | 0.15 | 0.00 | 88 | 1012.1 |
| 20260509041530 | 40 | 0 | 0.0 | 0.0 | 0.00 | 0.15 | 0.00 | 88 | 1012.1 |
| 20260509041017 | 40 | 0 | 0.0 | 0.0 | 0.00 | 0.15 | 0.00 | 89 | 1012.1 |
| 20260509040514 | 40 | 0 | 0.0 | 0.0 | 0.00 | 0.15 | 0.00 | 89 | 1012.0 |
| 20260509040040 | 39 | 0 | 0.0 | 0.0 | 0.00 | 0.15 | 0.00 | 90 | 1012.0 |
| 20260509035514 | 39 | 0 | 0.0 | 0.0 | 0.00 | 0.15 | 0.15 | 91 | 1012.0 |
| 20260509035015 | 39 | 0 | 0.0 | 0.0 | 0.00 | 0.15 | 0.15 | 92 | 1012.2 |
| 20260509034542 | 38 | 0 | 0.0 | 0.0 | 0.00 | 0.15 | 0.15 | 91 | 1012.1 |
| 20260509034017 | 38 | 0 | 0.0 | 0.0 | 0.00 | 0.15 | 0.15 | 90 | 1012.0 |
| 20260509033516 | 38 | 0 | 0.0 | 0.0 | 0.00 | 0.15 | 0.15 | 90 | 1012.0 |
| 20260509033028 | 38 | 0 | 0.0 | 0.0 | 0.00 | 0.15 | 0.15 | 90 | 1011.9 |
| 20260509032520 | 38 | 0 | 0.0 | 0.0 | 0.00 | 0.15 | 0.15 | 89 | 1011.9 |
| 20260509032017 | 38 | 0 | 0.0 | 0.0 | 0.00 | 0.15 | 0.15 | 90 | 1012.0 |
| 20260509031533 | 39 | 0 | 0.0 | 0.0 | 0.00 | 0.15 | 0.15 | 89 | 1012.1 |
| 20260509031016 | 39 | 0 | 0.0 | 0.0 | 0.00 | 0.15 | 0.15 | 90 | 1012.2 |
| 20260509030517 | 39 | 0 | 0.0 | 0.0 | 0.00 | 0.15 | 0.15 | 90 | 1012.2 |
| 20260509030030 | 39 | 0 | 0.0 | 0.0 | 0.00 | 0.15 | 0.15 | 91 | 1012.3 |
| 20260509025514 | 38 | 0 | 0.0 | 0.0 | 0.00 | 0.15 | 0.15 | 91 | 1012.3 |
| 20260509025014 | 38 | 0 | 0.0 | 0.0 | 0.00 | 0.15 | 0.15 | 91 | 1012.3 |
| 20260509024529 | 38 | 0 | 0.0 | 0.0 | 0.00 | 0.15 | 0.15 | 91 | 1012.4 |
| 20260509024014 | 38 | 0 | 0.0 | 0.0 | 0.00 | 0.15 | 0.15 | 92 | 1012.3 |
| 20260509023515 | 38 | 0 | 0.0 | 0.0 | 0.00 | 0.15 | 0.15 | 92 | 1012.4 |
| 20260509023029 | 37 | 0 | 0.0 | 0.0 | 0.00 | 0.15 | 0.15 | 92 | 1012.4 |
| 20260509022516 | 37 | 0 | 0.0 | 0.0 | 0.00 | 0.15 | 0.15 | 92 | 1012.5 |
| 20260509022014 | 37 | 0 | 0.0 | 0.0 | 0.00 | 0.15 | 0.15 | 91 | 1012.4 |
| 20260509021536 | 37 | 0 | 0.0 | 0.0 | 0.00 | 0.15 | 0.15 | 91 | 1012.3 |
| 20260509021014 | 37 | 0 | 0.0 | 0.0 | 0.00 | 0.15 | 0.15 | 91 | 1012.3 |
| 20260509020516 | 37 | 0 | 0.0 | 0.0 | 0.00 | 0.15 | 0.15 | 91 | 1012.2 |
| 20260509020033 | 37 | 0 | 0.0 | 0.0 | 0.00 | 0.15 | 0.15 | 91 | 1012.3 |
| 20260509015517 | 38 | 0 | 0.0 | 0.0 | 0.00 | 0.15 | 0.15 | 91 | 1012.4 |
| 20260509015017 | 38 | 0 | 0.0 | 0.0 | 0.00 | 0.15 | 0.15 | 90 | 1012.3 |
| 20260509014532 | 38 | 0 | 0.0 | 0.0 | 0.00 | 0.15 | 0.15 | 90 | 1012.3 |
| 20260509014016 | 38 | 0 | 0.0 | 0.0 | 0.00 | 0.15 | 0.15 | 90 | 1012.1 |
| 20260509013516 | 38 | 0 | 0.0 | 0.0 | 0.00 | 0.15 | 0.15 | 90 | 1012.0 |
| 20260509013030 | 38 | 0 | 0.0 | 0.0 | 0.00 | 0.15 | 0.15 | 89 | 1012.0 |
| 20260509012514 | 39 | 0 | 0.0 | 0.0 | 0.00 | 0.15 | 0.15 | 88 | 1011.9 |
| 20260509012016 | 39 | 0 | 0.0 | 0.0 | 0.00 | 0.15 | 0.15 | 88 | 1011.8 |
| 20260509011539 | 39 | 0 | 0.0 | 0.0 | 0.00 | 0.15 | 0.15 | 88 | 1011.8 |
| 20260509011014 | 39 | 0 | 0.0 | 0.0 | 0.00 | 0.15 | 0.15 | 87 | 1011.6 |
| 20260509010516 | 40 | 0 | 0.0 | 0.0 | 0.00 | 0.15 | 0.15 | 87 | 1011.6 |
| 20260509010039 | 40 | 0 | 0.0 | 0.0 | 0.00 | 0.15 | 0.15 | 86 | 1011.5 |
| 20260509005513 | 40 | 0 | 0.0 | 0.0 | 0.00 | 0.15 | 0.15 | 86 | 1011.5 |
| 20260509005014 | 41 | 0 | 0.0 | 0.0 | 0.00 | 0.15 | 0.15 | 86 | 1011.5 |
| 20260509004540 | 41 | 0 | 0.0 | 0.0 | 0.00 | 0.15 | 0.15 | 85 | 1011.3 |
| 20260509004015 | 42 | 0 | 0.0 | 0.0 | 0.00 | 0.15 | 0.15 | 85 | 1011.4 |
| 20260509003515 | 42 | 0 | 0.0 | 0.0 | 0.00 | 0.15 | 0.15 | 83 | 1011.2 |
| 20260509003032 | 43 | 0 | 0.0 | 0.0 | 0.00 | 0.15 | 0.15 | 82 | 1011.1 |
| 20260509002514 | 43 | 0 | 0.0 | 0.0 | 0.00 | 0.15 | 0.15 | 82 | 1011.0 |
| 20260509002015 | 44 | 0 | 0.0 | 0.0 | 0.00 | 0.15 | 0.15 | 81 | 1010.9 |
| 20260509001530 | 44 | 0 | 0.0 | 0.0 | 0.00 | 0.15 | 0.15 | 79 | 1010.9 |
| 20260509001014 | 45 | 0 | 0.0 | 0.0 | 0.00 | 0.15 | 0.15 | 78 | 1011.0 |
| 20260509000518 | 46 | 0 | 0.0 | 0.0 | 0.00 | 0.15 | 0.15 | 75 | 1011.0 |
| 20260509000034 | 46 | 0 | 0.0 | 0.0 | 0.00 | 0.15 | 0.15 | 73 | 1010.9 |
| 20260508235519 | 47 | 0 | 0.0 | 0.0 | 0.00 | 0.15 | 0.15 | 72 | 1010.9 |
| 20260508235018 | 48 | 0 | 0.0 | 0.0 | 0.00 | 0.15 | 0.15 | 70 | 1010.9 |
| 20260508234533 | 49 | 0 | 0.0 | 0.0 | 0.00 | 0.15 | 0.15 | 71 | 1010.9 |
| 20260508234019 | 50 | 0 | 0.0 | 0.0 | 0.00 | 0.15 | 0.15 | 68 | 1010.8 |
| 20260508233518 | 51 | 0 | 0.0 | 0.0 | 0.00 | 0.15 | 0.15 | 63 | 1010.6 |
| 20260508233031 | 52 | 0 | 0.0 | 0.0 | 0.00 | 0.15 | 0.15 | 63 | 1010.6 |
| 20260508232518 | 52 | 0 | 0.0 | 0.0 | 0.00 | 0.15 | 0.15 | 57 | 1010.7 |
| 20260508232017 | 53 | 0 | 0.0 | 0.0 | 0.00 | 0.15 | 0.15 | 53 | 1010.5 |
| 20260508231537 | 53 | 0 | 0.0 | 0.0 | 0.00 | 0.15 | 0.15 | 51 | 1010.6 |
| 20260508231019 | 53 | 0 | 0.0 | 0.0 | 0.00 | 0.15 | 0.15 | 53 | 1010.5 |
| 20260508230518 | 53 | 0 | 0.0 | 0.0 | 0.00 | 0.15 | 0.15 | 49 | 1010.5 |
| 20260508230037 | 53 | 0 | 0.0 | 0.0 | 0.00 | 0.15 | 0.15 | 51 | 1010.6 |
| 20260508225522 | 53 | 0 | 0.0 | 0.0 | 0.00 | 0.15 | 0.15 | 50 | 1010.6 |
| 20260508225019 | 54 | 0 | 0.0 | 0.0 | 0.00 | 0.15 | 0.15 | 51 | 1010.5 |
| 20260508224537 | 54 | 0 | 0.0 | 0.0 | 0.00 | 0.15 | 0.15 | 49 | 1010.5 |
| 20260508224018 | 54 | 0 | 0.0 | 0.0 | 0.00 | 0.15 | 0.15 | 51 | 1010.8 |
| 20260508223518 | 54 | 0 | 0.0 | 0.0 | 0.00 | 0.15 | 0.15 | 49 | 1010.8 |
| 20260508223041 | 54 | 0 | 0.0 | 0.0 | 0.00 | 0.15 | 0.15 | 50 | 1010.7 |
| 20260508222518 | 55 | 0 | 0.0 | 0.0 | 0.00 | 0.15 | 0.15 | 48 | 1010.9 |
| 20260508222018 | 55 | 0 | 0.0 | 0.0 | 0.00 | 0.15 | 0.15 | 49 | 1010.9 |
| 20260508221532 | 55 | 0 | 0.0 | 0.0 | 0.00 | 0.15 | 0.15 | 48 | 1010.9 |
| 20260508221020 | 55 | 0 | 0.0 | 0.0 | 0.00 | 0.15 | 0.15 | 52 | 1011.0 |
| 20260508220518 | 55 | 0 | 0.0 | 0.0 | 0.00 | 0.15 | 0.15 | 50 | 1011.0 |
| 20260508220036 | 55 | 0 | 0.0 | 0.0 | 0.00 | 0.15 | 0.15 | 48 | 1010.9 |
| 20260508215518 | 55 | 0 | 0.0 | 0.0 | 0.00 | 0.15 | 0.15 | 47 | 1010.9 |
| 20260508215018 | 55 | 0 | 0.0 | 0.0 | 0.00 | 0.15 | 0.15 | 53 | 1010.9 |
| 20260508214541 | 55 | 0 | 0.0 | 0.0 | 0.00 | 0.15 | 0.15 | 52 | 1010.9 |
| 20260508214018 | 56 | 0 | 0.0 | 0.0 | 0.00 | 0.15 | 0.15 | 52 | 1010.9 |
| 20260508213518 | 56 | 0 | 0.0 | 0.0 | 0.00 | 0.15 | 0.15 | 54 | 1010.8 |
| 20260508213036 | 55 | 0 | 0.0 | 0.0 | 0.00 | 0.15 | 0.15 | 56 | 1010.9 |
| 20260508212518 | 54 | 0 | 0.0 | 0.0 | 0.00 | 0.15 | 0.15 | 54 | 1010.8 |
| 20260508212023 | 55 | 0 | 0.0 | 0.0 | 0.00 | 0.15 | 0.15 | 54 | 1011.0 |
| 20260508211535 | 55 | 0 | 0.0 | 0.0 | 0.00 | 0.15 | 0.15 | 54 | 1010.9 |
| 20260508211018 | 54 | 0 | 0.0 | 0.0 | 0.00 | 0.15 | 0.15 | 54 | 1010.9 |
| 20260508210518 | 54 | 0 | 0.0 | 0.0 | 0.00 | 0.15 | 0.15 | 56 | 1011.1 |
| 20260508210040 | 54 | 0 | 0.0 | 0.0 | 0.00 | 0.15 | 0.15 | 50 | 1011.0 |
| 20260508205517 | 54 | 0 | 0.0 | 0.0 | 0.00 | 0.15 | 0.15 | 55 | 1011.1 |
| 20260508205018 | 54 | 0 | 0.0 | 0.0 | 0.00 | 0.15 | 0.15 | 55 | 1011.1 |
| 20260508204538 | 54 | 0 | 0.0 | 0.0 | 0.00 | 0.15 | 0.15 | 53 | 1011.0 |
| 20260508204026 | 53 | 0 | 0.0 | 0.0 | 0.00 | 0.15 | 0.15 | 53 | 1011.0 |
| 20260508203518 | 53 | 0 | 0.0 | 0.0 | 0.00 | 0.15 | 0.15 | 57 | 1011.0 |
| 20260508203035 | 53 | 0 | 0.0 | 0.0 | 0.00 | 0.15 | 0.15 | 55 | 1011.2 |
| 20260508202522 | 53 | 0 | 0.0 | 0.0 | 0.00 | 0.15 | 0.15 | 58 | 1011.2 |
| 20260508202018 | 53 | 0 | 0.0 | 0.0 | 0.00 | 0.15 | 0.15 | 58 | 1011.2 |
| 20260508201538 | 53 | 0 | 0.0 | 0.0 | 0.00 | 0.15 | 0.15 | 56 | 1011.2 |
| 20260508201021 | 54 | 0 | 0.0 | 0.0 | 0.00 | 0.15 | 0.15 | 61 | 1011.3 |
| 20260508200519 | 53 | 0 | 0.0 | 0.0 | 0.00 | 0.15 | 0.15 | 62 | 1011.4 |
| 20260508200035 | 53 | 0 | 0.0 | 0.0 | 0.00 | 0.15 | 0.15 | 59 | 1011.4 |
| 20260508195518 | 53 | 0 | 0.0 | 0.0 | 0.00 | 0.15 | 0.15 | 61 | 1011.5 |
| 20260508195018 | 52 | 0 | 0.0 | 0.0 | 0.00 | 0.15 | 0.15 | 61 | 1011.5 |
| 20260508194532 | 52 | 0 | 0.0 | 0.0 | 0.00 | 0.15 | 0.15 | 63 | 1011.6 |
| 20260508194017 | 52 | 0 | 0.0 | 0.0 | 0.00 | 0.15 | 0.15 | 62 | 1011.7 |
| 20260508193517 | 51 | 0 | 0.0 | 0.0 | 0.00 | 0.15 | 0.15 | 64 | 1011.7 |
| 20260508193036 | 51 | 0 | 0.0 | 0.0 | 0.00 | 0.15 | 0.15 | 65 | 1011.6 |
| 20260508192519 | 51 | 0 | 0.0 | 0.0 | 0.00 | 0.15 | 0.15 | 68 | 1011.6 |
| 20260508192019 | 51 | 0 | 0.0 | 0.0 | 0.00 | 0.15 | 0.15 | 65 | 1011.6 |
| 20260508191533 | 51 | 0 | 0.0 | 0.0 | 0.00 | 0.15 | 0.15 | 66 | 1011.6 |
| 20260508191019 | 51 | 0 | 0.0 | 0.0 | 0.00 | 0.15 | 0.15 | 67 | 1011.7 |
| 20260508190518 | 51 | 0 | 0.0 | 0.0 | 0.00 | 0.15 | 0.15 | 69 | 1011.8 |
| 20260508190036 | 50 | 0 | 0.0 | 0.0 | 0.00 | 0.15 | 0.15 | 70 | 1011.8 |
| 20260508185519 | 50 | 0 | 0.0 | 0.0 | 0.00 | 0.15 | 0.15 | 70 | 1011.8 |
| 20260508185018 | 50 | 0 | 0.0 | 0.0 | 0.00 | 0.15 | 0.15 | 70 | 1011.9 |
| 20260508184535 | 51 | 0 | 0.0 | 0.0 | 0.00 | 0.15 | 0.15 | 68 | 1011.9 |
| 20260508184017 | 52 | 0 | 0.0 | 0.0 | 0.00 | 0.15 | 0.15 | 69 | 1012.0 |
| 20260508183520 | 52 | 0 | 0.0 | 0.0 | 0.00 | 0.15 | 0.15 | 72 | 1011.8 |
| 20260508183030 | 53 | 0 | 0.0 | 0.0 | 0.00 | 0.15 | 0.15 | 71 | 1011.8 |
| 20260508182518 | 52 | 0 | 0.0 | 0.0 | 0.00 | 0.15 | 0.15 | 71 | 1011.8 |
| 20260508182017 | 51 | 0 | 0.0 | 0.0 | 0.00 | 0.15 | 0.15 | 74 | 1011.9 |
| 20260508181530 | 49 | 0 | 0.0 | 0.0 | 0.00 | 0.15 | 0.15 | 71 | 1011.9 |
| 20260508181018 | 49 | 0 | 0.0 | 0.0 | 0.00 | 0.15 | 0.15 | 72 | 1012.0 |
| 20260508180520 | 49 | 0 | 0.0 | 0.0 | 0.00 | 0.15 | 0.15 | 73 | 1012.0 |
| 20260508180030 | 49 | 0 | 0.0 | 0.0 | 0.00 | 0.15 | 0.15 | 72 | 1011.8 |
| 20260508175518 | 49 | 0 | 0.0 | 0.0 | 0.00 | 0.15 | 0.15 | 74 | 1012.1 |
| 20260508175019 | 49 | 0 | 0.0 | 0.0 | 0.00 | 0.15 | 0.15 | 72 | 1011.9 |
| 20260508174539 | 50 | 0 | 0.0 | 0.0 | 0.00 | 0.15 | 0.15 | 71 | 1012.0 |
| 20260508174018 | 50 | 0 | 0.0 | 0.0 | 0.00 | 0.15 | 0.15 | 74 | 1012.0 |
| 20260508173519 | 49 | 0 | 0.0 | 0.0 | 0.00 | 0.15 | 0.15 | 74 | 1012.0 |
| 20260508173034 | 49 | 0 | 0.0 | 0.0 | 0.00 | 0.15 | 0.15 | 74 | 1012.0 |
| 20260508172518 | 48 | 0 | 0.0 | 0.0 | 0.00 | 0.15 | 0.15 | 76 | 1012.1 |
| 20260508172022 | 48 | 0 | 0.0 | 0.0 | 0.00 | 0.15 | 0.15 | 73 | 1012.1 |
| 20260508171541 | 48 | 0 | 0.0 | 0.0 | 0.00 | 0.15 | 0.15 | 77 | 1012.1 |